CZ-6A DEB, 58433

Orbit data source: Space-Track

CZ-6A DEB, 58433 is space debris in SSO originally from a launch on Fri, 11 Nov 2022 UTC launched from the Taiyaun Space Center, China (TSC). Debris objects in space refer to the collection of defunct objects orbiting the Earth. Examples of debris include non-operational satellites, rocket bodies, and fragments generated from explosions, collisions, or faulty payload assembly.

Loading next visibility...
Identifier
58433, 2022-151AJB
Orbit
SSO
Country
Flag of CNCN / PRC
Related business
Manufacturer
SAST
Mission
Spacecraft
Bus & Motor
Unknown
Mass
Unknown
Launch date (UTC)
2022-11-11 (3 years ago)
Launch vehicle
Unknown
Launch site
Taiyaun Space Center, China (TSC)
Object type
Payload
Rocket body
Debris
Shape & HBR
Unknown shape, 0.1 m
Radar Cross Section
Small (<0.1 m²)

Expand to show TLE details & history
Last TLE update: 2 days ago

TLE from 2 days ago
0 CZ-6A DEB
1 58433U 22151AJB 25352.58378245  .00025238  00000-0  16284-2 0  9996
2 58433  98.7612 110.4414 0078104 320.6659  38.8907 15.05742780140968
Epoch: 2025-12-18T14:00Z
TLE epoch observation values (Epoch: 2025-12-18T14:00:38.803Z)
Latitude
Longitude
172.84252°
Altitude
510.302 km
Speed
7.632 km/s
True Right ascension
07h 21m 45s
True Declination
0° 00' 00"
Sunlit
Object was in full shadow at epoch
Visualization orbit readout
Latitude
Unknown
Longitude
Unknown
Altitude
Unknown
Speed
Unknown
Apparent Right ascension
Unknown
Apparent Declination
Unknown
Sunlit
N/A
Visualization observer readout
Local Sidereal Time
06:42:13
Azimuth
Unknown
Elevation
Unknown
Doppler factor
Unknown
Orbital elements
Apogee altitude
600.356 km
Perigee altitude
492.192 km
Semi-major axis
6,924.411 km
Eccentricity
0.00781
Inclination
98.7612°
RAAN
110.4414°
Arg. of periapsis
320.6659°
True anomaly
39.45691°
Mean anomaly
38.8907°
Eccentric anomaly
39.17337°
Mean motion
3.76677 °/min
Orbital period
95.57 mins
BSTAR
0.0016284
Loading maneuver chart data...
Computing Atmospheric mass density...
Loading historical data...
Loading historical data...
Loading historical data...
Loading historical data...
Loading historical data...
Loading historical data...
Loading historical data...

Documentation

Showing up to 5 results
|